| time (UTC) | temp C | wind direction | speed KPH | gust KPH | rain 1hr cm | rain 24hr cm | rain mn cm | humidity % | barometer mb |
| 20260509083704 | 1 | 185 | 0.0 | 0.0 | 0.00 | 0.00 | 0.00 | 92 | 1013.9 |
| 20260509082704 | 1 | 185 | 0.0 | 0.0 | 0.00 | 0.00 | 0.00 | 92 | 1014.0 |
| 20260509082204 | 1 | 185 | 0.0 | 0.0 | 0.00 | 0.00 | 0.00 | 91 | 1013.9 |
| 20260509081204 | 1 | 185 | 0.0 | 0.0 | 0.00 | 0.00 | 0.00 | 91 | 1013.9 |
| 20260509080704 | 1 | 185 | 0.0 | 0.0 | 0.00 | 0.00 | 0.00 | 91 | 1013.9 |
| 20260509074704 | 1 | 185 | 0.0 | 0.0 | 0.00 | 0.00 | 0.00 | 90 | 1013.9 |
| 20260509074204 | 1 | 185 | 0.0 | 0.0 | 0.00 | 0.00 | 0.00 | 90 | 1013.9 |
| 20260509071204 | 1 | 185 | 0.0 | 0.0 | 0.00 | 0.00 | 0.00 | 90 | 1013.9 |
| 20260509070705 | 2 | 185 | 0.0 | 0.0 | 0.00 | 0.00 | 0.00 | 89 | 1013.8 |
| 20260509070204 | 2 | 185 | 0.0 | 0.0 | 0.00 | 0.00 | 0.00 | 90 | 1013.7 |
| 20260509064704 | 2 | 185 | 0.0 | 0.0 | 0.00 | 0.00 | 0.00 | 89 | 1013.7 |
| 20260509063204 | 2 | 185 | 0.0 | 0.0 | 0.00 | 0.00 | 0.00 | 88 | 1013.8 |
| 20260509062704 | 2 | 185 | 0.0 | 0.0 | 0.00 | 0.00 | 0.00 | 88 | 1013.8 |
| 20260509062204 | 2 | 185 | 0.0 | 0.0 | 0.00 | 0.00 | 0.00 | 88 | 1013.8 |
| 20260509061704 | 2 | 185 | 0.0 | 0.0 | 0.00 | 0.00 | 0.00 | 87 | 1013.8 |
| 20260509061204 | 2 | 185 | 0.0 | 0.0 | 0.00 | 0.00 | 0.00 | 88 | 1013.9 |
| 20260509060704 | 2 | 185 | 0.0 | 0.0 | 0.00 | 0.00 | 0.00 | 87 | 1013.9 |
| 20260509060204 | 2 | 185 | 0.0 | 0.0 | 0.00 | 0.00 | 0.00 | 87 | 1013.9 |
| 20260509055204 | 3 | 185 | 0.0 | 0.0 | 0.00 | 0.00 | 0.00 | 87 | 1013.9 |
| 20260509054704 | 3 | 185 | 0.0 | 0.0 | 0.00 | 0.00 | 0.00 | 86 | 1013.8 |
| 20260509054203 | 3 | 185 | 0.0 | 0.0 | 0.00 | 0.00 | 0.00 | 87 | 1013.9 |
| 20260509053704 | 3 | 185 | 0.0 | 0.0 | 0.00 | 0.00 | 0.00 | 87 | 1013.8 |
| 20260509053203 | 3 | 185 | 0.0 | 0.0 | 0.00 | 0.00 | 0.00 | 86 | 1013.7 |
| 20260509051704 | 3 | 185 | 0.0 | 0.0 | 0.00 | 0.00 | 0.00 | 85 | 1013.6 |
| 20260509050204 | 3 | 185 | 0.0 | 0.0 | 0.00 | 0.00 | 0.00 | 84 | 1013.7 |
| 20260509045704 | 4 | 185 | 0.0 | 0.0 | 0.00 | 0.00 | 0.00 | 84 | 1013.6 |
| 20260509043703 | 4 | 185 | 0.0 | 0.0 | 0.00 | 0.00 | 0.00 | 82 | 1013.6 |
| 20260509043204 | 5 | 185 | 0.0 | 0.0 | 0.00 | 0.00 | 0.00 | 82 | 1013.5 |
| 20260509042704 | 5 | 185 | 0.0 | 0.0 | 0.00 | 0.00 | 0.00 | 82 | 1013.5 |
| 20260509041704 | 5 | 185 | 0.0 | 0.0 | 0.00 | 0.00 | 0.00 | 81 | 1013.4 |
| 20260509040204 | 5 | 185 | 0.0 | 0.0 | 0.00 | 0.00 | 0.00 | 79 | 1013.3 |
| 20260509035705 | 5 | 185 | 0.0 | 0.0 | 0.00 | 0.00 | 0.00 | 78 | 1013.3 |
| 20260509033204 | 6 | 185 | 0.0 | 0.0 | 0.00 | 0.00 | 0.00 | 76 | 1013.1 |
| 20260509032703 | 6 | 185 | 0.0 | 0.0 | 0.00 | 0.00 | 0.00 | 76 | 1013.0 |
| 20260509032205 | 6 | 185 | 0.0 | 0.0 | 0.00 | 0.00 | 0.00 | 76 | 1013.0 |
| 20260509030704 | 6 | 185 | 0.0 | 0.0 | 0.00 | 0.00 | 0.00 | 74 | 1012.8 |
| 20260509030204 | 6 | 185 | 0.0 | 0.0 | 0.00 | 0.00 | 0.00 | 74 | 1012.8 |
| 20260509024704 | 7 | 185 | 0.0 | 0.0 | 0.00 | 0.00 | 0.00 | 71 | 1012.7 |
| 20260509024203 | 7 | 185 | 0.0 | 0.0 | 0.00 | 0.00 | 0.00 | 71 | 1012.7 |
| 20260509023204 | 7 | 185 | 0.0 | 0.0 | 0.00 | 0.00 | 0.00 | 70 | 1012.7 |
| 20260509022703 | 7 | 185 | 0.0 | 0.0 | 0.00 | 0.00 | 0.00 | 69 | 1012.6 |
| 20260509021703 | 8 | 185 | 0.0 | 0.0 | 0.00 | 0.00 | 0.00 | 69 | 1012.5 |
| 20260509020704 | 8 | 185 | 0.0 | 0.0 | 0.00 | 0.00 | 0.00 | 64 | 1012.3 |
| 20260509015704 | 8 | 185 | 0.0 | 0.0 | 0.00 | 0.00 | 0.00 | 65 | 1012.2 |
| 20260509015203 | 8 | 185 | 0.0 | 0.0 | 0.00 | 0.00 | 0.00 | 65 | 1012.1 |
| 20260509014703 | 9 | 185 | 0.0 | 0.0 | 0.00 | 0.00 | 0.00 | 65 | 1012.0 |
| 20260509013203 | 9 | 185 | 0.0 | 0.0 | 0.00 | 0.00 | 0.00 | 62 | 1011.8 |
| 20260509012204 | 10 | 185 | 0.0 | 0.0 | 0.00 | 0.00 | 0.00 | 61 | 1011.7 |
| 20260509011704 | 10 | 185 | 0.0 | 0.0 | 0.00 | 0.00 | 0.00 | 60 | 1011.6 |
| 20260509011203 | 10 | 185 | 0.0 | 0.0 | 0.00 | 0.00 | 0.00 | 58 | 1011.4 |
| 20260509010704 | 10 | 185 | 0.0 | 0.0 | 0.00 | 0.00 | 0.00 | 56 | 1011.4 |
| 20260509000205 | 12 | 265 | 0.0 | 0.0 | 0.00 | 0.00 | 0.00 | 49 | 1010.2 |
| 20260508234704 | 12 | 264 | 0.0 | 4.8 | 0.00 | 0.00 | 0.00 | 49 | 1010.0 |
| 20260508234205 | 12 | 269 | 0.0 | 3.2 | 0.00 | 0.00 | 0.00 | 49 | 1009.9 |
| 20260508233705 | 12 | 269 | 1.6 | 4.8 | 0.00 | 0.00 | 0.00 | 48 | 1009.8 |
| 20260508231204 | 13 | 253 | 1.6 | 4.8 | 0.00 | 0.00 | 0.00 | 42 | 1009.3 |
| 20260508230705 | 13 | 333 | 3.2 | 9.7 | 0.00 | 0.00 | 0.00 | 44 | 1009.2 |
| 20260508230205 | 13 | 290 | 1.6 | 4.8 | 0.00 | 0.00 | 0.00 | 46 | 1009.2 |
| 20260508225204 | 13 | 234 | 1.6 | 4.8 | 0.00 | 0.00 | 0.00 | 43 | 1009.0 |
| 20260508220705 | 15 | 351 | 1.6 | 8.0 | 0.00 | 0.00 | 0.00 | 40 | 1008.7 |
| 20260508220204 | 15 | 271 | 1.6 | 9.7 | 0.00 | 0.00 | 0.00 | 39 | 1008.7 |
| 20260508215704 | 15 | 287 | 1.6 | 3.2 | 0.00 | 0.00 | 0.00 | 41 | 1008.7 |
| 20260508214704 | 15 | 269 | 1.6 | 8.0 | 0.00 | 0.00 | 0.00 | 42 | 1008.6 |
| 20260508213204 | 15 | 226 | 3.2 | 8.0 | 0.00 | 0.00 | 0.00 | 40 | 1008.5 |
| 20260508212705 | 15 | 302 | 0.0 | 3.2 | 0.00 | 0.00 | 0.00 | 39 | 1008.5 |
| 20260508212204 | 15 | 246 | 0.0 | 1.6 | 0.00 | 0.00 | 0.00 | 39 | 1008.5 |
| 20260508210705 | 15 | 266 | 3.2 | 8.0 | 0.00 | 0.00 | 0.00 | 37 | 1008.5 |
| 20260508205705 | 15 | 323 | 1.6 | 14.5 | 0.00 | 0.00 | 0.00 | 39 | 1008.5 |
| 20260508205204 | 15 | 240 | 3.2 | 12.9 | 0.00 | 0.00 | 0.00 | 37 | 1008.4 |
| 20260508204704 | 15 | 221 | 3.2 | 4.8 | 0.00 | 0.00 | 0.00 | 37 | 1008.3 |
| 20260508203704 | 15 | 220 | 3.2 | 4.8 | 0.00 | 0.00 | 0.00 | 42 | 1008.2 |
| 20260508202704 | 14 | 244 | 3.2 | 12.9 | 0.00 | 0.00 | 0.00 | 42 | 1008.2 |
| 20260508202205 | 14 | 252 | 3.2 | 4.8 | 0.00 | 0.00 | 0.00 | 41 | 1008.2 |
| 20260508201204 | 14 | 255 | 0.0 | 4.8 | 0.00 | 0.00 | 0.00 | 40 | 1008.2 |
| 20260508200704 | 15 | 256 | 3.2 | 11.3 | 0.00 | 0.00 | 0.00 | 39 | 1008.2 |
| 20260508195205 | 15 | 220 | 3.2 | 9.7 | 0.00 | 0.00 | 0.00 | 39 | 1008.2 |
| 20260508194204 | 15 | 291 | 3.2 | 4.8 | 0.00 | 0.00 | 0.00 | 39 | 1008.2 |
| 20260508193704 | 15 | 248 | 3.2 | 8.0 | 0.00 | 0.00 | 0.00 | 37 | 1008.3 |
| 20260508192705 | 15 | 223 | 1.6 | 8.0 | 0.00 | 0.00 | 0.00 | 38 | 1008.3 |
| 20260508192205 | 15 | 276 | 3.2 | 14.5 | 0.00 | 0.00 | 0.00 | 38 | 1008.3 |
| 20260508191704 | 15 | 277 | 4.8 | 9.7 | 0.00 | 0.00 | 0.00 | 37 | 1008.3 |
| 20260508191206 | 15 | 283 | 0.0 | 4.8 | 0.00 | 0.00 | 0.00 | 35 | 1008.3 |
| 20260508185705 | 15 | 263 | 4.8 | 19.3 | 0.00 | 0.00 | 0.00 | 38 | 1008.4 |
| 20260508184705 | 15 | 279 | 3.2 | 14.5 | 0.00 | 0.00 | 0.00 | 37 | 1008.5 |
| 20260508184205 | 15 | 267 | 4.8 | 9.7 | 0.00 | 0.00 | 0.00 | 36 | 1008.5 |
| 20260508183205 | 15 | 294 | 3.2 | 12.9 | 0.00 | 0.00 | 0.00 | 37 | 1008.4 |
| 20260508180704 | 15 | 226 | 3.2 | 12.9 | 0.00 | 0.00 | 0.00 | 34 | 1008.3 |
| 20260508175704 | 15 | 224 | 3.2 | 8.0 | 0.00 | 0.00 | 0.00 | 36 | 1008.2 |
| 20260508175205 | 15 | 290 | 3.2 | 16.1 | 0.00 | 0.00 | 0.00 | 36 | 1008.3 |
| 20260508173705 | 15 | 209 | 3.2 | 12.9 | 0.00 | 0.00 | 0.00 | 38 | 1008.2 |
| 20260508171704 | 15 | 289 | 4.8 | 14.5 | 0.00 | 0.00 | 0.00 | 41 | 1008.4 |
| 20260508170704 | 15 | 260 | 4.8 | 9.7 | 0.00 | 0.00 | 0.00 | 39 | 1008.3 |
| 20260508165705 | 15 | 207 | 4.8 | 11.3 | 0.00 | 0.00 | 0.00 | 40 | 1008.3 |
| 20260508164704 | 15 | 178 | 3.2 | 11.3 | 0.00 | 0.00 | 0.00 | 42 | 1008.3 |
| 20260508163204 | 15 | 281 | 4.8 | 11.3 | 0.00 | 0.00 | 0.00 | 40 | 1008.3 |
| 20260508161705 | 14 | 107 | 3.2 | 11.3 | 0.00 | 0.00 | 0.00 | 42 | 1008.3 |
| 20260508160704 | 14 | 223 | 4.8 | 16.1 | 0.00 | 0.00 | 0.00 | 40 | 1008.3 |
| 20260508155705 | 14 | 242 | 3.2 | 12.9 | 0.00 | 0.00 | 0.00 | 40 | 1008.5 |
| 20260508155205 | 14 | 300 | 4.8 | 12.9 | 0.00 | 0.00 | 0.00 | 40 | 1008.6 |
| 20260508153704 | 13 | 57 | 1.6 | 4.8 | 0.00 | 0.00 | 0.00 | 42 | 1008.9 |
| 20260508152704 | 13 | 34 | 3.2 | 14.5 | 0.00 | 0.00 | 0.00 | 41 | 1008.9 |
| 20260508152204 | 13 | 270 | 4.8 | 11.3 | 0.00 | 0.00 | 0.00 | 41 | 1009.0 |
| 20260508151704 | 13 | 284 | 1.6 | 4.8 | 0.00 | 0.00 | 0.00 | 44 | 1008.9 |
| 20260508151204 | 13 | 318 | 3.2 | 11.3 | 0.00 | 0.00 | 0.00 | 43 | 1009.0 |
| 20260508150704 | 13 | 12 | 4.8 | 14.5 | 0.00 | 0.00 | 0.00 | 42 | 1008.9 |
| 20260508144204 | 13 | 317 | 4.8 | 11.3 | 0.00 | 0.00 | 0.00 | 43 | 1009.1 |
| 20260508143204 | 13 | 339 | 1.6 | 8.0 | 0.00 | 0.00 | 0.00 | 45 | 1009.1 |
| 20260508140205 | 12 | 308 | 1.6 | 12.9 | 0.00 | 0.00 | 0.00 | 46 | 1009.3 |
| 20260508135703 | 13 | 257 | 1.6 | 8.0 | 0.00 | 0.00 | 0.00 | 46 | 1009.4 |
| 20260508135206 | 12 | 346 | 1.6 | 4.8 | 0.00 | 0.00 | 0.00 | 45 | 1009.4 |
| 20260508134704 | 12 | 261 | 3.2 | 12.9 | 0.00 | 0.00 | 0.00 | 46 | 1009.4 |
| 20260508134206 | 12 | 272 | 4.8 | 14.5 | 0.00 | 0.00 | 0.00 | 46 | 1009.5 |
| 20260508133704 | 12 | 294 | 3.2 | 8.0 | 0.00 | 0.00 | 0.00 | 47 | 1009.5 |
| 20260508133205 | 12 | 254 | 4.8 | 22.5 | 0.00 | 0.00 | 0.00 | 48 | 1009.4 |
| 20260508130704 | 11 | 331 | 4.8 | 11.3 | 0.00 | 0.00 | 0.00 | 51 | 1009.7 |
| 20260508130204 | 11 | 276 | 3.2 | 16.1 | 0.00 | 0.00 | 0.00 | 52 | 1009.7 |
| 20260508125704 | 11 | 210 | 3.2 | 9.7 | 0.00 | 0.00 | 0.00 | 54 | 1009.7 |
| 20260508123204 | 9 | 11 | 1.6 | 4.8 | 0.00 | 0.00 | 0.00 | 64 | 1009.8 |
| 20260508122704 | 8 | 252 | 3.2 | 9.7 | 0.00 | 0.00 | 0.00 | 64 | 1009.8 |
| 20260508122205 | 8 | 302 | 1.6 | 4.8 | 0.00 | 0.00 | 0.00 | 68 | 1009.8 |
| 20260508120204 | 6 | 268 | 1.6 | 4.8 | 0.00 | 0.00 | 0.00 | 75 | 1009.9 |
| 20260508114704 | 4 | 299 | 0.0 | 3.2 | 0.00 | 0.00 | 0.00 | 91 | 1009.7 |
| 20260508114204 | 3 | 296 | 0.0 | 1.6 | 0.00 | 0.00 | 0.00 | 94 | 1009.8 |
| 20260508113205 | 3 | 296 | 0.0 | 0.0 | 0.00 | 0.00 | 0.00 | 94 | 1009.8 |
| 20260508111704 | 2 | 296 | 0.0 | 0.0 | 0.00 | 0.00 | 0.00 | 94 | 1009.8 |
| 20260508111204 | 2 | 296 | 0.0 | 0.0 | 0.00 | 0.00 | 0.00 | 94 | 1009.8 |
| 20260508110204 | 2 | 296 | 0.0 | 0.0 | 0.00 | 0.00 | 0.00 | 93 | 1009.8 |
| 20260508102204 | 1 | 296 | 0.0 | 0.0 | 0.00 | 0.00 | 0.00 | 91 | 1009.4 |
| 20260508101204 | 1 | 296 | 0.0 | 0.0 | 0.00 | 0.00 | 0.00 | 91 | 1009.2 |
| 20260508095204 | 1 | 296 | 0.0 | 0.0 | 0.00 | 0.00 | 0.00 | 91 | 1009.1 |
| 20260508094704 | 1 | 296 | 0.0 | 0.0 | 0.00 | 0.00 | 0.00 | 91 | 1009.1 |
| 20260508094204 | 1 | 296 | 0.0 | 0.0 | 0.00 | 0.00 | 0.00 | 91 | 1009.0 |
| 20260508093704 | 1 | 296 | 0.0 | 0.0 | 0.00 | 0.00 | 0.00 | 91 | 1008.9 |
| 20260508093204 | 1 | 296 | 0.0 | 0.0 | 0.00 | 0.00 | 0.00 | 91 | 1008.9 |
| 20260508091704 | 1 | 296 | 0.0 | 0.0 | 0.00 | 0.03 | 0.00 | 91 | 1008.8 |
| 20260508091204 | 1 | 296 | 0.0 | 0.0 | 0.00 | 0.03 | 0.00 | 91 | 1008.7 |
| 20260508090704 | 1 | 296 | 0.0 | 0.0 | 0.00 | 0.03 | 0.00 | 91 | 1008.8 |
| 20260508090203 | 1 | 296 | 0.0 | 0.0 | 0.00 | 0.03 | 0.00 | 91 | 1008.8 |
| 20260508085704 | 1 | 296 | 0.0 | 0.0 | 0.00 | 0.03 | 0.00 | 91 | 1008.7 |
| 20260508085205 | 1 | 296 | 0.0 | 0.0 | 0.00 | 0.03 | 0.00 | 90 | 1008.7 |
| 20260508084704 | 1 | 296 | 0.0 | 0.0 | 0.00 | 0.03 | 0.00 | 90 | 1008.7 |